Regional Weather Roundup
Issued by NWS Cleveland, OH

Home | Current Version | Previous Version | Text Only | Print | Product List | Glossary Off
Versions: 1 2 3 4 5 6 7 8 9 10 11 12 13 14 15 16 17 18 19 20 21 22 23 24 25 26 27 28 29 30 31 32 33 34 35 36 37 38 39 40 41 42 43 44 45 46 47 48 49 50

608
ASUS41 KCLE 260910
RWRCLE
OHIO REGIONAL WEATHER ROUNDUP
NATIONAL WEATHER SERVICE WILMINGTON, OH
400 AM EST SUN FEB 26 2017

NOTE: "FAIR" INDICATES FEW OR NO CLOUDS BELOW 12,000 FEET WITH NO
SIGNIFICANT WEATHER AND/OR OBSTRUCTIONS TO VISIBILITY.

OHZ001>008-015>018-024>027-034-035-043-044-261000-
   NORTHWEST OHIO

CITY           SKY/WX    TMP DP  RH WIND       PRES   REMARKS
DEFIANCE       CLOUDY    25  17  72 VRB7      30.07R WCI  17
FINDLAY        CLOUDY    27  15  61 W13       30.05S WCI  16
TOLEDO EXPRESS CLOUDY    25  20  81 W10       30.05S WCI  15
TOLEDO EXEC    CLOUDY    26  18  71 W10       30.07R WCI  16
LIMA           LGT SNOW  24  21  88 NW9       30.06R FOG     WCI  14
$$

OHZ009>014-019>023-028>033-038-089-261000-
   NORTHEAST OHIO

CITY           SKY/WX    TMP DP  RH WIND       PRES   REMARKS
CLE-HOPKINS    LGT SNOW  26  18  71 W9        30.05R WCI  17
CLE-LAKEFRONT  FLURRIES  27  18  69 W18G24    30.03R WCI  14
CUY CO. ARPT   NOT AVBL
LORAIN-ELYRIA  CLOUDY    24  17  74 W8        30.04R WCI  15
ASHTABULA      FLURRIES  24  18  77 W9        29.99R WCI  14
AKRON-CANTON   CLOUDY    26  16  65 NW10      30.00R WCI  16
WOOSTER        CLOUDY    25  19  78 W10       30.02R WCI  15
MANSFIELD      LGT SNOW  24  20  84 W8        30.01S FOG     WCI  15
YOUNGSTOWN     FLURRIES  25  17  72 W13       29.98R WCI  14
$$

OHZ042-051>053-060>062-070>072-077>081-261000-
  SOUTHWEST OHIO

CITY           SKY/WX    TMP DP  RH WIND       PRES   REMARKS
CINC-COVINGTON FAIR      23  16  74 W7        30.10S WCI  15
CINC-LUNKEN    FAIR      27  17  66 W9        30.14R WCI  18
HAMILTON       FAIR      26  18  71 W8        30.12S WCI  18
DAYTON         CLOUDY    27  17  66 W10       30.07S WCI  17
WRIGHT-PAT AFB CLOUDY    28  15  59 W7        30.08R WCI  20
DAYTON GENERAL CLOUDY    27  16  63 NW10      30.08S WCI  17
WILMINGTON     MOCLDY    26  16  65 W8        30.07R WCI  18
$$

OHZ036-037-039>041-045>050-054>059-063>069-073>076-082>088-261000-
  CENTRAL AND SOUTHEAST OHIO

CITY           SKY/WX    TMP DP  RH WIND       PRES   REMARKS
COLUMBUS       CLOUDY    30  15  53 W12       30.06R WCI  20
OSU AIRPORT    CLOUDY    29  18  63 W13       30.06R WCI  19
BOLTON FIELD   MOCLDY    27  17  65 W8        30.07R WCI  19
RICKENBACK AFB CLOUDY    29  17  59 W14       30.07R WCI  19
NEWARK         CLOUDY    30  15  53 W14       30.05R WCI  19
MARION         LGT SNOW  25  19  78 NW9       30.06R WCI  15
LANCASTER      CLOUDY    31  20  63 W8        30.06R WCI  23
ZANESVILLE     CLOUDY    30  17  58 W7        30.04S WCI  23
NEW PHILLY     CLOUDY    28  21  75 W6        30.03S WCI  22
$$




USA.gov is the U.S. government's official web portal to all federal, state and local government web resources and services.